User: anonymous   Login
Location: South Tamworth Observatory
(43.8246°N, 71.3026°W)
Time: 06:21:49
(UTC-04:00)
Language:

Cosmos 1844 - Orbit

View from above orbital plane
View from above orbital plane
View from above satellite
View from above satellite

Ground track
Ground track

The orbit data is extracted from the following two-line orbital elements,

1 17973U 87041A   15117.47394816 -.00000108  00000-0 -31173-4 0  9994
2 17973 070.8973 121.0048 0032823 222.3867 292.1403 14.13989635442647
Epoch (UTC): 27 April 2015 11:22:29
Eccentricity: 0.0032823
inclination: 70.8973°
perigee height: 822 km
apogee height: 869 km
right ascension of ascending node: 121.0048°
argument of perigee: 222.3867°
revolutions per day: 14.13989635
mean anomaly at epoch: 292.1403°
orbit number at epoch: 44264

The dashed part of the orbit path shows where the satellite is in the earth's shadow,  

DLR